Flag Weather past 2 weeks in Funchal, Madeira, Portugal

Now
66 °F

Scattered clouds.


Feels Like: 66 °F
Forecast: N/A
Wind: 28 mph from Southwest

Location: Aeroporto Da Madeira

Current Time: Nov 27, 2014 at 6:30:56 PM

Latest Report: Nov 27, 2014 at 6:00 PM


Visibility: N/A

Pressure: 29.56 "Hg

Humidity: 64%

Dew point: 54 °F

Location of FunchalLocation

Historic Weather in Funchal — Graph

°F

Funchal temperature yesterday

Maximum temperature yesterday: 72 °F (at 11:00 AM)
Minimum temperature yesterday: 59 °F (at 12:30 AM)
Average temperature yesterday: 62 °F

Past Weeks' High & Low Weather Summary

 TemperatureHumidityPressure
High77 °F (Nov 14, 12:30 PM)94% (Nov 16, 10:00 AM)30.30 "Hg (Nov 16, 10:00 AM)
Low55 °F (Nov 20, 5:30 AM)46% (Nov 19, 1:30 PM)29.56 "Hg (Nov 27, 5:00 PM)
Average64 °F69%29.94 "Hg
* Reported Nov 12 5:00 PM — Nov 27 5:00 PM, Funchal, Weather by CustomWeather, © 2014

Note: Actual official high and low records may vary slightly from our data, if they occured in-between our weather recording intervals... More about our weather records

Advertising

Funchal weather history for previous 24 hours

 ConditionsComfort  
Time TempWeatherWind HumidityBarometerVisibility
5:00 PM
Nov 27
66 °FPassing clouds.16 mph60%29.56 "HgN/A
4:30 PM66 °FScattered clouds.6 mph60%29.62 "HgN/A
4:00 PM66 °FScattered clouds.15 mph64%29.59 "HgN/A
3:30 PM66 °FPassing clouds.5 mph60%29.65 "HgN/A
3:00 PM66 °FPassing clouds.5 mph60%29.65 "HgN/A
2:30 PM66 °FPassing clouds.5 mph60%29.68 "HgN/A
2:00 PM68 °FPassing clouds.2 mph56%29.71 "HgN/A
1:30 PM64 °FPassing clouds.6 mph60%29.74 "HgN/A
1:00 PM64 °FPassing clouds.6 mph60%29.77 "HgN/A
12:30 PM64 °FPassing clouds.6 mph60%29.80 "HgN/A
12:00 PM66 °FPassing clouds.3 mph52%29.80 "HgN/A
11:30 AM64 °FPassing clouds.3 mph56%29.83 "HgN/A
11:00 AM66 °FPassing clouds.2 mph52%29.86 "HgN/A
10:30 AM63 °FPassing clouds.1 mph56%29.83 "HgN/A
10:00 AM63 °FPassing clouds.1 mph56%29.86 "HgN/A
9:30 AM61 °FPassing clouds.5 mph63%29.86 "HgN/A
9:00 AM59 °FPassing clouds.2 mph68%29.86 "HgN/A
8:00 AM59 °FBroken clouds.5 mph63%29.89 "HgN/A
7:30 AM61 °FPassing clouds.7 mph55%29.89 "HgN/A
7:00 AM57 °FPassing clouds.8 mph67%29.89 "HgN/A
6:30 AM57 °FPassing clouds.5 mph72%29.89 "HgN/A
6:00 AM57 °FPassing clouds.6 mph72%29.92 "HgN/A
5:30 AM57 °FPassing clouds.6 mph67%29.89 "HgN/A
5:00 AM57 °FPassing clouds.7 mph72%29.89 "HgN/A
4:30 AM57 °FPassing clouds.7 mph72%29.92 "HgN/A
4:00 AM59 °FPassing clouds.8 mph63%29.92 "HgN/A
3:30 AM59 °FPassing clouds.8 mph68%29.95 "HgN/A
3:00 AM59 °FPassing clouds.7 mph59%29.95 "HgN/A
2:30 AM59 °FPassing clouds.8 mph59%29.95 "HgN/A
2:00 AM61 °FPassing clouds.8 mph55%29.98 "HgN/A
1:30 AM59 °FPassing clouds.7 mph59%29.98 "HgN/A
1:00 AM61 °FPassing clouds.9 mph55%29.98 "HgN/A
12:30 AM59 °FPassing clouds.8 mph59%29.98 "HgN/A
12:00 AM61 °FPassing clouds.14 mph55%29.98 "HgN/A
11:30 PM
Nov 26
59 °FPassing clouds.8 mph59%29.98 "HgN/A
11:00 PM61 °FPassing clouds.10 mph48%29.98 "HgN/A
10:30 PM61 °FPassing clouds.10 mph48%30.01 "HgN/A
10:00 PM61 °FPassing clouds.9 mph52%30.01 "HgN/A
9:00 PM61 °FPassing clouds.10 mph55%29.98 "HgN/A
8:30 PM61 °FPassing clouds.8 mph55%29.98 "HgN/A
8:00 PM61 °FPassing clouds.6 mph59%30.01 "HgN/A
7:30 PM59 °FPassing clouds.10 mph63%30.01 "HgN/A
7:00 PM59 °FPassing clouds.9 mph63%30.01 "HgN/A
6:30 PM59 °FPassing clouds.8 mph68%30.01 "HgN/A
6:00 PM59 °FScattered clouds.14 mph68%29.98 "HgN/A
Weather by CustomWeather, © 2014

See weather overviewHow to use our weather pages